Aérodrome :
LOGIN :

S'inscrire | Disclaimer

   EN    FR    IT 

 










Légende :    VFR   VFR Marginal   IFR   IFR Intensif   IFR Très Intensif
Visi : 
Plafond : 
>= 8 km
>= 3000ft
5 à 8 km
1000 à 3000 ft
1500m à 5 km
500 à 1000 ft
800 à 1500m
200 à 500 ft
< 800m
< 200 ft
Symboles :   Orages  Brouillard  Fortes neiges  Fortes précipitations  Vent > 20 kt
SIGMETs :   Divers  Orages  Givrage  Turbulence  Onde Orograph.  Cendres Volcan.






- Altitude de l'aérodrome : 56 ft
- Code IATA : ILY


EGPI - Islay

DERNIER METAR :
  • 301550Z AUTO 35017KT 310V030 9999 BKN046/// 09/04 Q1039

METARs EXPIRÉS :
  • 301420Z AUTO 35019KT 320V030 9999 FEW024/// BKN041/// 10/04 Q1039
  • 301350Z AUTO 34021KT 310V010 9999 FEW024/// BKN039/// 10/04 Q1040
  • 301320Z AUTO 35019KT 310V020 9999 FEW024/// BKN039/// 10/04 Q1040

TAF TAF EGPI
Valide du 30 à 15h jusqu'au 30 à 19h UTC


301356Z 3015/3019 33013KT 9999 SCT030
PROB30
TEMPO 3015/3019 34016G26KT



MET'MAP, la Météo Aéronautique d'un coup d'oeil ! - Copyright ORBIFLY Décembre 2007 - Disclaimer

ORBIFLY MET'MAP TEAM :

Programmation & Développement : Alexandra Zaïnal
Sur une idée originale de : Baudouin d'Aumeries
Assistance à la programmation : Marc-Olivier Méhu
Soutien technique & logistique : Manuel Goepfert

Contact : metmap@orbifly.com




SOURCES & CREDITS :

   NOAA